LROP Weather Reports


Display with metric or nautical units.
time (UTC)temp
F
wind
direction
speed
MPH
gust
MPH
rain 1hr
in
rain 24hr
in
rain mn
in
humidity
%
barometer
mb
20260831164802 81 130 6.0 0.0 0.00 0.00 0.00 39 1016.0
20260831163301 81 130 6.0 0.0 0.00 0.00 0.00 39 1016.0
20260831161802 82 130 6.0 0.0 0.00 0.00 0.00 35 1016.0
20260831160302 82 130 6.0 0.0 0.00 0.00 0.00 35 1016.0
20260831154802 86 110 6.0 0.0 0.00 0.00 0.00 31 1016.0
20260831153302 86 110 6.0 0.0 0.00 0.00 0.00 31 1016.0
20260831151802 88 120 7.0 0.0 0.00 0.00 0.00 29 1016.0
20260831150302 88 120 7.0 0.0 0.00 0.00 0.00 29 1016.0
20260831144802 88 90 7.0 0.0 0.00 0.00 0.00 27 1016.0
20260831143302 88 90 7.0 0.0 0.00 0.00 0.00 27 1016.0
20260831141802 90 90 7.0 0.0 0.00 0.00 0.00 27 1016.0
20260831140309 90 90 7.0 0.0 0.00 0.00 0.00 27 1016.0
20260831134802 88 3.0 0.0 0.00 0.00 0.00 27 1016.0
20260831133303 88 3.0 0.0 0.00 0.00 0.00 27 1016.0
20260831131802 88 8.0 0.0 0.00 0.00 0.00 25 1016.0
20260831130302 88 8.0 0.0 0.00 0.00 0.00 25 1016.0
20260831124819 88 100 7.0 0.0 0.00 0.00 0.00 31 1017.0
20260831123301 88 100 7.0 0.0 0.00 0.00 0.00 31 1017.0
20260831121802 88 130 9.0 0.0 0.00 0.00 0.00 31 1017.0
20260831120302 88 130 9.0 0.0 0.00 0.00 0.00 31 1017.0
20260831114802 88 110 8.0 0.0 0.00 0.00 0.00 31 1017.0
20260831113301 88 110 8.0 0.0 0.00 0.00 0.00 31 1017.0
20260831111822 86 80 9.0 0.0 0.00 0.00 0.00 33 1017.0
20260831110302 86 80 9.0 0.0 0.00 0.00 0.00 33 1017.0
20260831104802 86 130 6.0 0.0 0.00 0.00 0.00 33 1018.0
20260831103302 86 130 6.0 0.0 0.00 0.00 0.00 33 1018.0
20260831101802 86 80 7.0 0.0 0.00 0.00 0.00 31 1018.0
20260831100302 86 80 7.0 0.0 0.00 0.00 0.00 31 1018.0
20260831094802 84 120 7.0 0.0 0.00 0.00 0.00 31 1018.0
20260831093415 84 110 6.0 0.0 0.00 0.00 0.00 35 1018.0
20260831091802 84 110 6.0 0.0 0.00 0.00 0.00 35 1018.0
20260831090302 84 110 6.0 0.0 0.00 0.00 0.00 35 1018.0
20260831084802 82 110 7.0 0.0 0.00 0.00 0.00 35 1018.0
20260831083302 82 110 7.0 0.0 0.00 0.00 0.00 35 1018.0
20260831081915 82 80 7.0 0.0 0.00 0.00 0.00 37 1018.0
20260831080302 82 80 7.0 0.0 0.00 0.00 0.00 37 1018.0
20260831074815 79 80 7.0 0.0 0.00 0.00 0.00 45 1019.0
20260831073302 79 80 7.0 0.0 0.00 0.00 0.00 45 1019.0
20260831071830 77 60 8.0 0.0 0.00 0.00 0.00 51 1018.0
20260831070302 77 60 8.0 0.0 0.00 0.00 0.00 51 1018.0
20260831064802 73 60 5.0 0.0 0.00 0.00 0.00 57 1018.0
20260831063302 73 60 5.0 0.0 0.00 0.00 0.00 57 1018.0
20260831061803 72 50 5.0 0.0 0.00 0.00 0.00 65 1019.0
20260831060302 72 50 5.0 0.0 0.00 0.00 0.00 65 1019.0
20260831054803 68 70 5.0 0.0 0.00 0.00 0.00 73 1019.0
20260831053302 68 70 5.0 0.0 0.00 0.00 0.00 73 1019.0
20260831051802 68 80 6.0 0.0 0.00 0.00 0.00 73 1018.0
20260831050302 68 80 6.0 0.0 0.00 0.00 0.00 73 1018.0
20260831044804 64 80 5.0 0.0 0.00 0.00 0.00 83 1018.0
20260831043306 64 80 5.0 0.0 0.00 0.00 0.00 83 1018.0
20260831041802 64 80 3.0 0.0 0.00 0.00 0.00 83 1018.0
20260831040302 64 80 3.0 0.0 0.00 0.00 0.00 83 1018.0
20260831034802 64 30 6.0 0.0 0.00 0.00 0.00 83 1018.0
20260831033302 64 30 6.0 0.0 0.00 0.00 0.00 83 1018.0
20260831031802 64 20 3.0 0.0 0.00 0.00 0.00 83 1018.0
20260831030303 64 20 3.0 0.0 0.00 0.00 0.00 83 1018.0
20260831024802 64 70 5.0 0.0 0.00 0.00 0.00 83 1018.0
20260831023310 64 70 5.0 0.0 0.00 0.00 0.00 83 1018.0
20260831021802 64 30 5.0 0.0 0.00 0.00 0.00 88 1018.0
20260831020304 64 30 5.0 0.0 0.00 0.00 0.00 88 1018.0
20260831014802 66 20 5.0 0.0 0.00 0.00 0.00 83 1018.0
20260831013301 66 20 5.0 0.0 0.00 0.00 0.00 83 1018.0
20260831011803 66 10 5.0 0.0 0.00 0.00 0.00 83 1018.0
20260831010302 66 10 5.0 0.0 0.00 0.00 0.00 83 1018.0
20260831004802 66 360 6.0 0.0 0.00 0.00 0.00 78 1018.0
20260831003302 66 360 6.0 0.0 0.00 0.00 0.00 78 1018.0
20260831001801 66 10 6.0 0.0 0.00 0.00 0.00 78 1018.0
20260831000303 66 10 6.0 0.0 0.00 0.00 0.00 78 1018.0
20260830234802 66 40 5.0 0.0 0.00 0.00 0.00 78 1018.0
20260830233302 66 40 5.0 0.0 0.00 0.00 0.00 78 1018.0
20260830231803 68 60 3.0 0.0 0.00 0.00 0.00 78 1018.0
20260830230303 68 60 3.0 0.0 0.00 0.00 0.00 78 1018.0
20260830224802 68 90 5.0 0.0 0.00 0.00 0.00 73 1018.0
20260830223302 68 90 5.0 0.0 0.00 0.00 0.00 73 1018.0
20260830221801 70 100 5.0 0.0 0.00 0.00 0.00 69 1018.0
20260830220302 70 100 5.0 0.0 0.00 0.00 0.00 69 1018.0
20260830214801 68 100 3.0 0.0 0.00 0.00 0.00 78 1018.0
20260830213302 68 100 3.0 0.0 0.00 0.00 0.00 78 1018.0
20260830211802 70 80 6.0 0.0 0.00 0.00 0.00 73 1018.0
20260830210302 70 80 6.0 0.0 0.00 0.00 0.00 73 1018.0
20260830204802 72 80 1.0 0.0 0.00 0.00 0.00 73 1018.0
20260830203302 72 80 1.0 0.0 0.00 0.00 0.00 73 1018.0
20260830201802 72 0 0.0 0.0 0.00 0.00 0.00 69 1017.0
20260830200302 72 0 0.0 0.0 0.00 0.00 0.00 69 1017.0
20260830194802 72 0 0.0 0.0 0.00 0.00 0.00 69 1017.0
20260830193302 72 0 0.0 0.0 0.00 0.00 0.00 69 1017.0
20260830191803 73 110 3.0 0.0 0.00 0.00 0.00 65 1017.0
20260830190303 73 110 3.0 0.0 0.00 0.00 0.00 65 1017.0
20260830184802 73 100 3.0 0.0 0.00 0.00 0.00 61 1017.0
20260830183331 73 100 3.0 0.0 0.00 0.00 0.00 61 1017.0
20260830181803 75 110 5.0 0.0 0.00 0.00 0.00 57 1017.0
20260830180302 75 110 5.0 0.0 0.00 0.00 0.00 57 1017.0
20260830174802 75 100 5.0 0.0 0.00 0.00 0.00 57 1017.0
20260830173302 75 100 5.0 0.0 0.00 0.00 0.00 57 1017.0
20260830171802 77 110 5.0 0.0 0.00 0.00 0.00 51 1016.0
20260830170302 77 110 5.0 0.0 0.00 0.00 0.00 51 1016.0